Location: Piotrkow Trybunalski
(51.4000°N, 19.6830°E)
Time: 06:53:44
(UTC+01:00)

Vanguard 2 - All Passes

Search period start: 06 February 2023 00:00
Search period end: 16 February 2023 00:00
Orbit: 553 x 2930 km, 32.9° (Epoch: 05 February)

Date Brightness Start Highest point End Pass type
(mag) Time Alt. Az. Time Alt. Az. Time Alt. Az.
06 Feb - 00:39:34 10° WSW 00:53:35 35° SSW 01:08:09 10° SE visible
06 Feb - 02:51:45 10° WSW 03:02:53 21° SW 03:13:25 10° S visible
06 Feb - 18:37:46 10° SSE 18:42:45 13° SE 18:48:31 10° ESE visible
06 Feb - 20:39:58 10° SSW 20:50:24 31° SSE 21:03:55 10° ESE visible
06 Feb - 22:46:57 10° WSW 22:59:53 39° S 23:15:19 10° ESE visible
07 Feb - 00:56:25 10° WSW 01:09:56 32° SSW 01:23:58 10° SSE visible
07 Feb - 03:09:56 10° WSW 03:18:54 16° SW 03:27:32 10° S visible
07 Feb - 18:52:04 10° S 18:58:41 17° SE 19:06:50 10° ESE visible
07 Feb - 20:56:01 10° SW 21:06:40 33° SSE 21:20:43 10° ESE visible
07 Feb - 23:03:29 10° WSW 23:16:20 38° S 23:31:38 10° SE visible
08 Feb - 01:13:26 10° WSW 01:26:13 28° SSW 01:39:31 10° SSE visible
08 Feb - 03:29:41 10° WSW 03:34:52 12° SW 03:39:56 10° SSW visible
08 Feb - 19:07:12 10° S 19:14:41 21° SE 19:24:24 10° ESE visible
08 Feb - 21:12:13 10° SW 21:23:01 35° SSE 21:37:22 10° ESE visible
08 Feb - 23:20:06 10° WSW 23:32:46 36° S 23:47:47 10° SE visible
09 Feb - 01:30:41 10° WSW 01:42:27 24° SSW 01:54:41 10° SSE visible
09 Feb - 19:22:45 10° SSW 19:30:48 24° SSE 19:41:34 10° ESE visible
09 Feb - 21:28:32 10° SW 21:39:25 36° S 21:53:54 10° ESE visible
09 Feb - 23:36:50 10° WSW 23:49:10 33° SSW 00:03:44 10° SE visible
10 Feb - 01:48:19 10° WSW 01:58:37 20° SW 02:09:18 10° S visible
10 Feb - 17:38:23 10° SE 17:39:55 10° SE 17:41:32 10° SE visible
10 Feb - 19:38:35 10° SSW 19:46:58 27° SSE 19:58:31 10° ESE visible
10 Feb - 21:44:58 10° WSW 21:55:50 36° S 22:10:17 10° ESE visible
10 Feb - 23:53:42 10° WSW 00:05:34 30° SSW 00:19:25 10° SSE visible
11 Feb - 02:06:43 10° WSW 02:14:44 15° SW 02:23:00 10° SSW night (unlit)
11 Feb - 17:51:30 10° SSE 17:55:50 14° SE 18:01:03 10° ESE visible
11 Feb - 19:54:39 10° SW 20:03:14 30° SSE 20:15:16 10° ESE visible
11 Feb - 22:01:30 10° WSW 22:12:16 34° S 22:26:32 10° SE visible
12 Feb - 00:10:46 10° WSW 00:21:54 26° SSW 00:34:47 10° SSE night (unlit)
12 Feb - 02:27:36 10° SW 02:30:47 11° SW 02:34:01 10° SSW night (unlit)
12 Feb - 18:06:27 10° S 18:11:51 17° SE 18:18:48 10° ESE visible
12 Feb - 20:10:52 10° SW 20:19:34 31° SSE 20:31:53 10° ESE visible
12 Feb - 22:18:09 10° WSW 22:28:43 32° S 22:42:35 10° SE visible
13 Feb - 00:28:07 10° WSW 00:38:12 22° SSW 00:49:41 10° SSE night (unlit)
13 Feb - 18:21:57 10° SSW 18:27:57 20° SSE 18:36:01 10° ESE visible
13 Feb - 20:27:12 10° SW 20:35:57 32° S 20:48:22 10° ESE visible
13 Feb - 22:34:55 10° WSW 22:45:09 29° SSW 22:58:23 10° SE visible
14 Feb - 00:45:59 10° WSW 00:54:27 17° SSW 01:03:54 10° S night (unlit)
14 Feb - 18:37:47 10° SSW 18:44:08 23° SSE 18:52:57 10° ESE visible
14 Feb - 20:43:39 10° SW 20:52:21 31° S 21:04:41 10° SE visible
14 Feb - 22:51:51 10° WSW 23:01:34 26° SSW 23:13:54 10° SSE visible
15 Feb - 01:05:02 10° WSW 01:10:41 13° SW 01:16:43 10° SSW night (unlit)
15 Feb - 18:53:50 10° SSW 19:00:24 25° SSE 19:09:42 10° ESE visible
15 Feb - 21:00:13 10° WSW 21:08:47 30° S 21:20:50 10° SE visible
15 Feb - 23:09:01 10° WSW 23:17:58 22° SSW 23:29:01 10° SSE visible
